Burlington, NC

4:45 AM EST on December 06, 2016 (GMT -0500)
Burlington-Alamance Regional

Weather History for KBUY - April, 2013

Change the Weather History Date:

Tuesday, April 9, 2013

  Actual Average Record
Temperature  
Mean Temperature 70 °F -  
Max Temperature 84 °F 70 °F 90 °F (2001)
Min Temperature 55 °F 42 °F 26 °F (1972)
Cooling Degree Days 4    
Growing Degree Days 20 (Base 50)    
Moisture  
Dew Point 53 °F    
Average Humidity 58    
Maximum Humidity 90    
Minimum Humidity 33    
Precipitation  
Precipitation 0.00 in - - ()
Sea Level Pressure  
Sea Level Pressure 30.10 in    
Wind  
Wind Speed 5 mph (SSW)    
Max Wind Speed 12 mph    
Max Gust Speed -    
Visibility 10 miles    
Events      
Averages and records for this station are not official NWS values.
T = Trace of Precipitation, MM = Missing Value Source: NWS Daily Summary

Daily Weather History Graph

Daily Weather History Graph

Search for Another Location

Airport or City:

Trip Planner

Search our weather history database for the weather conditions in past years. The results will help you decide how hot, cold, wet, or windy it might be!

Date:

Astronomy

Apr. 09, 2013 Rise Set
Actual Time 6:52 AM EDT 7:46 PM EDT
Civil Twilight 6:26 AM EDT 8:12 PM EDT
Nautical Twilight 5:55 AM EDT 8:43 PM EDT
Astronomical Twilight 5:23 AM EDT 9:15 PM EDT
Moon 6:13 AM EDT (4/9) 7:20 PM EDT (4/9)
Length of Visible Light 13h 46m
Length of Day
12h 54m
Waning Crescent, 1% of the Moon is Illuminated
Apr 9
Waning Crescent
Apr 10
New
Apr 18
First Quarter
Apr 25
Full
May 2
Last Quarter

Hourly Weather History & Observations

Time (EDT) Temp. Heat Index Dew Point Humidity Pressure Visibility Wind Dir Wind Speed Gust Speed Precip Events Conditions
12:54 AM 64.9 °F - 51.1 °F 61% 30.09 in 10.0 mi South 4.6 mph - N/A   Clear
1:54 AM 62.1 °F - 52.0 °F 70% 30.09 in 10.0 mi South 4.6 mph - N/A   Clear
2:54 AM 61.0 °F - 53.1 °F 75% 30.09 in 10.0 mi South 4.6 mph - N/A   Clear
3:54 AM 60.1 °F - 53.1 °F 78% 30.10 in 10.0 mi Calm Calm - N/A   Clear
4:54 AM 55.0 °F - 52.0 °F 89% 30.12 in 10.0 mi Calm Calm - N/A   Clear
5:54 AM 55.9 °F - 53.1 °F 90% 30.13 in 10.0 mi Calm Calm - N/A   Clear
6:54 AM 55.9 °F - 53.1 °F 90% 30.14 in 10.0 mi Calm Calm - N/A   Clear
7:54 AM 57.9 °F - 54.0 °F 87% 30.16 in 10.0 mi Calm Calm - N/A   Clear
8:54 AM 64.0 °F - 55.0 °F 73% 30.17 in 10.0 mi SW 9.2 mph - N/A   Clear
9:54 AM 69.1 °F - 55.0 °F 61% 30.17 in 10.0 mi SW 8.1 mph - N/A   Clear
10:54 AM 73.9 °F - 55.9 °F 53% 30.17 in 10.0 mi SW 8.1 mph - N/A   Clear
11:54 AM 79.0 °F - 55.0 °F 44% 30.16 in 10.0 mi SSW 9.2 mph - N/A   Clear
12:54 PM 81.0 °F - 52.0 °F 36% 30.14 in 10.0 mi Variable 5.8 mph - N/A   Clear
1:54 PM 82.0 °F - 51.1 °F 34% 30.12 in 10.0 mi SSW 4.6 mph - N/A   Clear
2:54 PM 84.0 °F 82.5 °F 53.1 °F 34% 30.09 in 10.0 mi South 6.9 mph - N/A   Partly Cloudy
3:54 PM 84.0 °F - 52.0 °F 33% 30.06 in 10.0 mi South 5.8 mph - N/A   Partly Cloudy
4:54 PM 84.9 °F 83.2 °F 53.1 °F 33% 30.05 in 10.0 mi SSW 9.2 mph - N/A   Clear
5:54 PM 84.0 °F - 52.0 °F 33% 30.06 in 10.0 mi SW 10.4 mph - N/A   Clear
6:54 PM 81.0 °F 80.5 °F 54.0 °F 39% 30.05 in 10.0 mi SSW 11.5 mph - N/A   Clear
7:54 PM 77.0 °F - 54.0 °F 45% 30.06 in 10.0 mi SSW 6.9 mph - N/A   Clear
8:54 PM 73.9 °F - 55.0 °F 52% 30.07 in 10.0 mi South 4.6 mph - N/A   Clear
9:54 PM 72.0 °F - 55.0 °F 55% 30.08 in 10.0 mi SSW 4.6 mph - N/A   Clear
10:54 PM 71.1 °F - 55.0 °F 57% 30.07 in 10.0 mi SSW 4.6 mph - N/A   Clear
11:54 PM 69.1 °F - 55.0 °F 61% 30.06 in 10.0 mi South 3.5 mph - N/A   Clear